User: anonymous   Login
Location: Unspecified
(0.0000°N, 0.0000°E)
Time: 14:11:47
(UTC+00:00)
Language:

Kosmos-929 - Orbit

View from above orbital plane
View from above orbital plane
View from above satellite
View from above satellite

Ground track
Ground track

The orbit data is extracted from the following two-line orbital elements,

1 10146U 77066  A 78030.28393404  .00012141 +00000-0 +00000-0 0 01079
2 10146 051.5786 133.2862 0008170 066.0885 293.9951 15.41307191031194
Epoch (UTC): 30 January 1978 06:48:51
Eccentricity: 0.0008170
inclination: 51.5786°
perigee height: 437 km
apogee height: 448 km
right ascension of ascending node: 133.2862°
argument of perigee: 66.0885°
revolutions per day: 15.41307191
mean anomaly at epoch: 293.9951°
orbit number at epoch: 3119

The dashed part of the orbit path shows where the satellite is in the earth's shadow,  

DLR